| time (UTC) | temp F | wind direction | speed knots | gust knots | rain 1hr in | rain 24hr in | rain mn in | humidity % | barometer mb |
| 20260506162545 | 56 | 111 | 0.0 | 1.7 | 0.08 | 0.44 | 0.38 | 98 | 1004.9 |
| 20260506162026 | 56 | 97 | 0.0 | 1.7 | 0.07 | 0.43 | 0.37 | 98 | 1004.9 |
| 20260506161559 | 56 | 67 | 0.0 | 1.7 | 0.07 | 0.42 | 0.36 | 99 | 1004.8 |
| 20260506161021 | 56 | 67 | 0.0 | 2.6 | 0.08 | 0.42 | 0.36 | 98 | 1004.8 |
| 20260506160556 | 55 | 66 | 0.0 | 2.6 | 0.08 | 0.41 | 0.35 | 98 | 1004.8 |
| 20260506160019 | 55 | 46 | 0.0 | 2.6 | 0.09 | 0.41 | 0.35 | 98 | 1004.8 |
| 20260506155554 | 55 | 59 | 0.0 | 1.7 | 0.08 | 0.40 | 0.34 | 98 | 1004.8 |
| 20260506155018 | 55 | 96 | 0.0 | 1.7 | 0.08 | 0.39 | 0.33 | 98 | 1004.8 |
| 20260506154555 | 55 | 118 | 0.0 | 1.7 | 0.08 | 0.38 | 0.32 | 98 | 1004.9 |
| 20260506154016 | 55 | 111 | 0.0 | 1.7 | 0.09 | 0.38 | 0.32 | 99 | 1005.0 |
| 20260506153556 | 55 | 79 | 0.0 | 2.6 | 0.08 | 0.37 | 0.32 | 99 | 1004.9 |
| 20260506153033 | 55 | 34 | 0.0 | 2.6 | 0.09 | 0.37 | 0.31 | 99 | 1004.9 |
| 20260506152550 | 55 | 82 | 0.0 | 1.7 | 0.10 | 0.36 | 0.30 | 99 | 1005.1 |
| 20260506152034 | 55 | 91 | 0.0 | 2.6 | 0.11 | 0.36 | 0.30 | 99 | 1005.1 |
| 20260506151508 | 54 | 94 | 0.9 | 2.6 | 0.11 | 0.35 | 0.28 | 99 | 1005.2 |
| 20260506151031 | 54 | 66 | 0.9 | 2.6 | 0.11 | 0.34 | 0.28 | 98 | 1005.2 |
| 20260506150506 | 54 | 90 | 0.0 | 2.6 | 0.11 | 0.33 | 0.27 | 98 | 1005.4 |
| 20260506150023 | 54 | 45 | 0.0 | 2.6 | 0.11 | 0.32 | 0.26 | 98 | 1005.4 |
| 20260506145557 | 54 | 94 | 0.9 | 2.6 | 0.12 | 0.32 | 0.26 | 99 | 1005.5 |
| 20260506145036 | 54 | 101 | 0.0 | 1.7 | 0.11 | 0.31 | 0.25 | 99 | 1005.5 |
| 20260506144522 | 54 | 53 | 0.0 | 1.7 | 0.11 | 0.30 | 0.24 | 99 | 1005.7 |
| 20260506144046 | 54 | 88 | 0.0 | 1.7 | 0.10 | 0.28 | 0.23 | 99 | 1005.7 |
| 20260506143512 | 54 | 306 | 0.0 | 0.9 | 0.11 | 0.28 | 0.23 | 98 | 1005.8 |
| 20260506143045 | 54 | 306 | 0.0 | 0.9 | 0.10 | 0.28 | 0.22 | 99 | 1005.9 |
| 20260506142559 | 53 | 306 | 0.0 | 0.9 | 0.09 | 0.26 | 0.21 | 99 | 1006.0 |
| 20260506142038 | 53 | 306 | 0.0 | 0.9 | 0.08 | 0.25 | 0.19 | 99 | 1006.0 |
| 20260506141525 | 53 | 306 | 0.0 | 0.9 | 0.06 | 0.23 | 0.18 | 98 | 1006.1 |
| 20260506141034 | 53 | 306 | 0.0 | 0.9 | 0.06 | 0.23 | 0.17 | 98 | 1006.1 |
| 20260506140512 | 53 | 306 | 0.0 | 0.0 | 0.06 | 0.22 | 0.16 | 98 | 1006.1 |
| 20260506140032 | 53 | 306 | 0.0 | 0.9 | 0.05 | 0.21 | 0.15 | 98 | 1006.1 |
| 20260506135506 | 53 | 306 | 0.0 | 0.9 | 0.04 | 0.20 | 0.14 | 98 | 1006.2 |
| 20260506135028 | 53 | 306 | 0.0 | 1.7 | 0.04 | 0.20 | 0.14 | 98 | 1006.2 |
| 20260506134504 | 53 | 319 | 0.0 | 1.7 | 0.03 | 0.19 | 0.13 | 98 | 1006.3 |
| 20260506134026 | 53 | 319 | 0.0 | 0.9 | 0.04 | 0.19 | 0.13 | 98 | 1006.2 |
| 20260506133505 | 53 | 319 | 0.0 | 0.0 | 0.03 | 0.18 | 0.12 | 98 | 1006.0 |
| 20260506133054 | 53 | 319 | 0.0 | 0.9 | 0.03 | 0.18 | 0.12 | 98 | 1006.0 |
| 20260506132600 | 53 | 319 | 0.0 | 0.9 | 0.03 | 0.17 | 0.11 | 98 | 1006.0 |
| 20260506132022 | 53 | 319 | 0.0 | 0.0 | 0.04 | 0.17 | 0.11 | 98 | 1006.0 |
| 20260506131615 | 52 | 319 | 0.0 | 0.9 | 0.04 | 0.17 | 0.11 | 98 | 1005.9 |
| 20260506131018 | 52 | 319 | 0.0 | 0.9 | 0.05 | 0.17 | 0.11 | 98 | 1005.9 |
| 20260506130554 | 52 | 319 | 0.0 | 0.0 | 0.04 | 0.16 | 0.10 | 98 | 1005.8 |
| 20260506130016 | 52 | 319 | 0.0 | 0.0 | 0.05 | 0.16 | 0.10 | 98 | 1006.1 |
| 20260506125552 | 52 | 319 | 0.0 | 0.9 | 0.05 | 0.16 | 0.10 | 98 | 1006.3 |
| 20260506125036 | 52 | 319 | 0.0 | 0.9 | 0.06 | 0.16 | 0.10 | 98 | 1006.2 |
| 20260506124553 | 52 | 319 | 0.0 | 0.9 | 0.06 | 0.16 | 0.10 | 98 | 1006.0 |
| 20260506124034 | 52 | 319 | 0.0 | 0.9 | 0.05 | 0.15 | 0.09 | 98 | 1006.2 |
| 20260506123512 | 52 | 309 | 0.0 | 0.9 | 0.06 | 0.15 | 0.09 | 98 | 1006.3 |
| 20260506123034 | 52 | 294 | 0.0 | 0.0 | 0.05 | 0.14 | 0.09 | 98 | 1006.5 |
| 20260506122510 | 52 | 294 | 0.0 | 1.7 | 0.05 | 0.14 | 0.08 | 97 | 1006.5 |
| 20260506122030 | 52 | 304 | 0.0 | 0.9 | 0.05 | 0.13 | 0.08 | 98 | 1006.6 |
| 20260506121512 | 52 | 311 | 0.0 | 0.9 | 0.05 | 0.13 | 0.07 | 97 | 1006.3 |
| 20260506121030 | 52 | 293 | 0.0 | 0.9 | 0.04 | 0.12 | 0.06 | 97 | 1006.4 |
| 20260506120508 | 52 | 293 | 0.0 | 1.7 | 0.05 | 0.12 | 0.06 | 97 | 1006.5 |
| 20260506120047 | 52 | 293 | 0.0 | 1.7 | 0.04 | 0.11 | 0.05 | 97 | 1006.6 |
| 20260506115547 | 52 | 337 | 0.0 | 0.9 | 0.04 | 0.11 | 0.05 | 97 | 1006.5 |
| 20260506115028 | 52 | 306 | 0.0 | 1.7 | 0.03 | 0.10 | 0.04 | 97 | 1006.7 |
| 20260506114548 | 52 | 306 | 0.9 | 2.6 | 0.03 | 0.10 | 0.04 | 97 | 1006.8 |
| 20260506114030 | 52 | 288 | 0.0 | 2.6 | 0.03 | 0.10 | 0.04 | 97 | 1006.6 |
| 20260506113600 | 52 | 334 | 0.0 | 1.7 | 0.03 | 0.09 | 0.03 | 97 | 1006.5 |
| 20260506113506 | 51 | 286 | 0.0 | 1.7 | 0.03 | 0.09 | 0.03 | 97 | 1006.5 |
| 20260506113026 | 52 | 269 | 0.0 | 1.7 | 0.03 | 0.09 | 0.03 | 97 | 1006.9 |
| 20260506112504 | 51 | 268 | 0.0 | 0.9 | 0.03 | 0.09 | 0.03 | 97 | 1006.7 |
| 20260506112024 | 51 | 266 | 0.0 | 0.9 | 0.02 | 0.08 | 0.02 | 97 | 1006.6 |
| 20260506111600 | 51 | 266 | 0.0 | 0.9 | 0.02 | 0.08 | 0.02 | 96 | 1006.6 |
| 20260506111504 | 51 | 266 | 0.0 | 0.9 | 0.02 | 0.08 | 0.02 | 96 | 1006.5 |
| 20260506111027 | 51 | 266 | 0.0 | 0.0 | 0.01 | 0.07 | 0.02 | 96 | 1006.5 |
| 20260506110558 | 51 | 266 | 0.0 | 0.9 | 0.01 | 0.07 | 0.01 | 96 | 1006.6 |
| 20260506110020 | 51 | 266 | 0.0 | 0.9 | 0.01 | 0.07 | 0.01 | 96 | 1006.4 |
| 20260506105550 | 51 | 266 | 0.0 | 0.0 | 0.01 | 0.07 | 0.01 | 96 | 1006.3 |
| 20260506105011 | 51 | 266 | 0.0 | 0.0 | 0.01 | 0.07 | 0.01 | 96 | 1006.2 |
| 20260506104602 | 51 | 266 | 0.0 | 0.0 | 0.01 | 0.07 | 0.01 | 96 | 1006.3 |
| 20260506104024 | 51 | 266 | 0.0 | 0.0 | 0.01 | 0.07 | 0.01 | 96 | 1006.4 |
| 20260506103506 | 51 | 266 | 0.0 | 0.9 | 0.00 | 0.06 | 0.00 | 96 | 1006.4 |
| 20260506103038 | 51 | 266 | 0.0 | 0.9 | 0.00 | 0.06 | 0.00 | 96 | 1006.5 |
| 20260506102600 | 51 | 266 | 0.0 | 0.9 | 0.00 | 0.06 | 0.00 | 96 | 1006.5 |
| 20260506102502 | 51 | 266 | 0.0 | 0.9 | 0.00 | 0.06 | 0.00 | 95 | 1006.4 |
| 20260506102024 | 51 | 303 | 0.0 | 5.2 | 0.00 | 0.06 | 0.00 | 95 | 1006.3 |
| 20260506101558 | 51 | 303 | 0.0 | 5.2 | 0.00 | 0.06 | 0.00 | 95 | 1006.1 |
| 20260506101020 | 51 | 266 | 0.9 | 1.7 | 0.00 | 0.06 | 0.00 | 95 | 1006.2 |
| 20260506100557 | 51 | 299 | 0.9 | 1.7 | 0.00 | 0.06 | 0.00 | 95 | 1006.6 |
| 20260506100014 | 51 | 303 | 0.9 | 2.6 | 0.00 | 0.06 | 0.00 | 94 | 1006.8 |
| 20260506095548 | 51 | 323 | 0.9 | 2.6 | 0.00 | 0.06 | 0.00 | 94 | 1006.7 |
| 20260506095010 | 51 | 296 | 0.0 | 0.9 | 0.00 | 0.06 | 0.00 | 94 | 1006.5 |
| 20260506094546 | 51 | 269 | 0.0 | 0.0 | 0.00 | 0.06 | 0.00 | 94 | 1006.1 |
| 20260506094010 | 51 | 277 | 0.0 | 0.0 | 0.00 | 0.06 | 0.00 | 94 | 1006.3 |
| 20260506093544 | 51 | 277 | 0.0 | 0.0 | 0.00 | 0.06 | 0.00 | 94 | 1006.3 |
| 20260506093018 | 52 | 277 | 0.0 | 0.0 | 0.00 | 0.06 | 0.00 | 94 | 1006.1 |
| 20260506092544 | 52 | 277 | 0.0 | 0.0 | 0.00 | 0.06 | 0.00 | 94 | 1006.2 |
| 20260506092008 | 52 | 277 | 0.0 | 0.0 | 0.00 | 0.06 | 0.00 | 94 | 1006.2 |
| 20260506091543 | 52 | 277 | 0.0 | 0.0 | 0.00 | 0.06 | 0.00 | 93 | 1006.1 |
| 20260506091017 | 52 | 277 | 0.0 | 0.0 | 0.00 | 0.06 | 0.00 | 93 | 1006.0 |
| 20260506090536 | 52 | 277 | 0.0 | 0.0 | 0.00 | 0.06 | 0.00 | 93 | 1006.1 |
| 20260506090016 | 52 | 277 | 0.0 | 1.7 | 0.00 | 0.06 | 0.00 | 93 | 1006.2 |
| 20260506085550 | 52 | 277 | 0.0 | 1.7 | 0.00 | 0.06 | 0.00 | 93 | 1006.4 |
| 20260506085015 | 52 | 273 | 0.0 | 0.0 | 0.00 | 0.06 | 0.00 | 93 | 1006.5 |
| 20260506084617 | 52 | 273 | 0.0 | 0.0 | 0.00 | 0.06 | 0.00 | 93 | 1006.5 |
| 20260506084017 | 52 | 273 | 0.0 | 0.0 | 0.00 | 0.06 | 0.00 | 93 | 1006.3 |
| 20260506083546 | 52 | 273 | 0.0 | 0.0 | 0.00 | 0.06 | 0.00 | 93 | 1006.2 |
| 20260506083022 | 52 | 273 | 0.0 | 0.0 | 0.00 | 0.06 | 0.00 | 93 | 1006.4 |
| 20260506082541 | 52 | 273 | 0.0 | 0.9 | 0.00 | 0.06 | 0.00 | 93 | 1006.6 |
| 20260506082019 | 52 | 273 | 0.0 | 0.9 | 0.00 | 0.06 | 0.00 | 92 | 1006.8 |
| 20260506081550 | 52 | 273 | 0.0 | 1.7 | 0.00 | 0.06 | 0.00 | 92 | 1006.6 |
| 20260506081018 | 52 | 273 | 0.0 | 1.7 | 0.00 | 0.06 | 0.00 | 92 | 1006.6 |
| 20260506080557 | 52 | 251 | 0.0 | 0.0 | 0.00 | 0.06 | 0.00 | 92 | 1006.9 |
| 20260506073038 | 53 | 250 | 0.0 | 0.0 | 0.00 | 0.06 | 0.00 | 92 | 1007.2 |
| 20260506072555 | 53 | 250 | 0.0 | 0.0 | 0.00 | 0.06 | 0.00 | 91 | 1007.1 |
| 20260506072017 | 53 | 250 | 0.0 | 0.0 | 0.00 | 0.06 | 0.00 | 91 | 1007.2 |
| 20260506071557 | 53 | 250 | 0.0 | 0.0 | 0.00 | 0.06 | 0.00 | 91 | 1007.3 |
| 20260506071015 | 53 | 250 | 0.0 | 0.0 | 0.00 | 0.06 | 0.00 | 91 | 1007.3 |
| 20260506070549 | 53 | 250 | 0.0 | 0.0 | 0.00 | 0.06 | 0.00 | 91 | 1007.2 |
| 20260506062017 | 53 | 288 | 0.0 | 2.6 | 0.00 | 0.06 | 0.00 | 90 | 1007.3 |
| 20260506061537 | 53 | 262 | 0.9 | 3.5 | 0.00 | 0.06 | 0.00 | 90 | 1007.3 |
| 20260506061016 | 53 | 261 | 0.0 | 3.5 | 0.00 | 0.06 | 0.00 | 90 | 1007.5 |
| 20260506060535 | 53 | 277 | 0.0 | 2.6 | 0.00 | 0.06 | 0.00 | 90 | 1007.3 |
| 20260506051043 | 54 | 255 | 0.0 | 2.6 | 0.00 | 0.06 | 0.00 | 90 | 1007.6 |
| 20260506050523 | 54 | 276 | 0.0 | 2.6 | 0.00 | 0.06 | 0.00 | 89 | 1007.6 |
| 20260506050103 | 54 | 275 | 0.0 | 2.6 | 0.00 | 0.06 | 0.00 | 89 | 1007.5 |
| 20260506045051 | 54 | 311 | 0.9 | 3.5 | 0.00 | 0.06 | 0.00 | 89 | 1007.3 |
| 20260506044537 | 54 | 307 | 0.0 | 5.2 | 0.00 | 0.06 | 0.00 | 89 | 1007.9 |
| 20260506044008 | 54 | 307 | 0.0 | 0.9 | 0.00 | 0.06 | 0.00 | 89 | 1007.8 |
| 20260506043544 | 55 | 285 | 0.0 | 0.9 | 0.00 | 0.06 | 0.00 | 89 | 1007.8 |
| 20260506043020 | 55 | 272 | 0.0 | 4.3 | 0.00 | 0.06 | 0.00 | 89 | 1007.8 |
| 20260506042539 | 55 | 281 | 0.0 | 4.3 | 0.00 | 0.06 | 0.00 | 88 | 1008.0 |
| 20260506042018 | 55 | 276 | 0.0 | 2.6 | 0.00 | 0.06 | 0.00 | 88 | 1008.1 |
| 20260506041605 | 55 | 272 | 0.0 | 2.6 | 0.00 | 0.06 | 0.00 | 87 | 1008.1 |
| 20260506041032 | 55 | 279 | 0.0 | 0.9 | 0.00 | 0.06 | 0.00 | 87 | 1008.1 |
| 20260506040509 | 56 | 274 | 0.0 | 2.6 | 0.00 | 0.06 | 0.00 | 87 | 1008.3 |
| 20260506040043 | 56 | 266 | 0.0 | 3.5 | 0.00 | 0.06 | 0.06 | 87 | 1008.2 |
| 20260506035559 | 56 | 284 | 0.9 | 3.5 | 0.00 | 0.06 | 0.06 | 87 | 1008.5 |
| 20260506035501 | 56 | 309 | 0.0 | 3.5 | 0.00 | 0.06 | 0.06 | 87 | 1008.5 |
| 20260506035039 | 56 | 261 | 0.9 | 2.6 | 0.00 | 0.06 | 0.06 | 87 | 1008.3 |
| 20260506034557 | 56 | 274 | 0.9 | 3.5 | 0.00 | 0.06 | 0.06 | 87 | 1008.2 |
| 20260506034036 | 56 | 289 | 0.0 | 7.0 | 0.00 | 0.06 | 0.06 | 87 | 1008.1 |
| 20260506033550 | 56 | 287 | 0.9 | 7.0 | 0.00 | 0.06 | 0.06 | 87 | 1008.1 |
| 20260506033031 | 56 | 5 | 0.0 | 7.0 | 0.00 | 0.06 | 0.06 | 88 | 1007.9 |
| 20260506032509 | 56 | 310 | 0.9 | 6.1 | 0.00 | 0.06 | 0.06 | 88 | 1008.0 |
| 20260506032030 | 56 | 332 | 0.9 | 6.1 | 0.00 | 0.06 | 0.06 | 88 | 1008.1 |
| 20260506031505 | 56 | 338 | 1.7 | 6.1 | 0.00 | 0.06 | 0.06 | 88 | 1007.9 |
| 20260506031043 | 57 | 318 | 0.9 | 6.1 | 0.00 | 0.06 | 0.06 | 88 | 1007.8 |
| 20260506030601 | 57 | 285 | 0.9 | 6.1 | 0.00 | 0.06 | 0.06 | 88 | 1008.1 |
| 20260506030501 | 57 | 234 | 0.9 | 3.5 | 0.00 | 0.06 | 0.06 | 88 | 1008.0 |
| 20260506030040 | 57 | 256 | 0.9 | 2.6 | 0.00 | 0.06 | 0.06 | 88 | 1007.7 |
| 20260506025558 | 57 | 315 | 0.9 | 7.0 | 0.00 | 0.06 | 0.06 | 88 | 1007.7 |
| 20260506025500 | 57 | 288 | 0.9 | 7.0 | 0.00 | 0.06 | 0.06 | 88 | 1007.7 |
| 20260506025042 | 57 | 5 | 1.7 | 7.0 | 0.00 | 0.06 | 0.06 | 88 | 1007.7 |
| 20260506024556 | 58 | 322 | 0.9 | 7.0 | 0.00 | 0.06 | 0.06 | 89 | 1007.6 |
| 20260506024040 | 58 | 286 | 1.7 | 7.8 | 0.00 | 0.06 | 0.06 | 89 | 1007.6 |
| 20260506023521 | 58 | 280 | 3.5 | 7.8 | 0.00 | 0.06 | 0.06 | 90 | 1007.7 |
| 20260506023106 | 58 | 263 | 3.5 | 7.0 | 0.00 | 0.06 | 0.06 | 91 | 1007.7 |
| 20260506022536 | 58 | 286 | 0.9 | 6.1 | 0.00 | 0.06 | 0.06 | 92 | 1007.6 |
| 20260506022017 | 58 | 279 | 1.7 | 6.1 | 0.00 | 0.06 | 0.06 | 93 | 1007.6 |
| 20260506021607 | 58 | 319 | 0.0 | 3.5 | 0.00 | 0.06 | 0.06 | 95 | 1007.6 |
| 20260506021025 | 59 | 281 | 0.0 | 3.5 | 0.00 | 0.06 | 0.06 | 96 | 1007.5 |
| 20260506020558 | 59 | 268 | 0.0 | 2.6 | 0.00 | 0.06 | 0.06 | 97 | 1007.4 |
| 20260506020036 | 59 | 284 | 0.9 | 2.6 | 0.00 | 0.06 | 0.06 | 97 | 1007.4 |
| 20260506015513 | 58 | 302 | 0.0 | 2.6 | 0.00 | 0.06 | 0.06 | 96 | 1007.3 |
| 20260506015051 | 58 | 11 | 0.0 | 0.9 | 0.00 | 0.06 | 0.06 | 96 | 1007.3 |
| 20260506014529 | 59 | 11 | 0.0 | 0.0 | 0.00 | 0.06 | 0.06 | 96 | 1007.0 |
| 20260506014008 | 59 | 11 | 0.0 | 0.0 | 0.00 | 0.06 | 0.06 | 96 | 1007.0 |
| 20260506013544 | 59 | 11 | 0.0 | 0.0 | 0.00 | 0.06 | 0.06 | 96 | 1006.8 |
| 20260506013019 | 59 | 11 | 0.0 | 0.0 | 0.01 | 0.06 | 0.06 | 96 | 1006.6 |
| 20260506012551 | 59 | 11 | 0.0 | 0.0 | 0.01 | 0.06 | 0.06 | 96 | 1006.4 |
| 20260506012031 | 59 | 11 | 0.0 | 0.0 | 0.01 | 0.06 | 0.06 | 95 | 1006.1 |
| 20260506011512 | 59 | 11 | 0.0 | 0.0 | 0.01 | 0.06 | 0.06 | 95 | 1006.3 |
| 20260506011044 | 59 | 11 | 0.0 | 0.0 | 0.01 | 0.06 | 0.06 | 95 | 1006.1 |
| 20260506010532 | 59 | 11 | 0.0 | 0.0 | 0.01 | 0.06 | 0.06 | 95 | 1005.9 |
| 20260506010046 | 59 | 11 | 0.0 | 0.0 | 0.01 | 0.06 | 0.06 | 95 | 1005.6 |
| 20260506005523 | 60 | 11 | 0.0 | 0.9 | 0.01 | 0.06 | 0.06 | 95 | 1005.6 |
| 20260506005051 | 60 | 11 | 0.0 | 0.9 | 0.01 | 0.06 | 0.06 | 95 | 1005.6 |
| 20260506004528 | 60 | 11 | 0.0 | 0.9 | 0.01 | 0.06 | 0.06 | 95 | 1005.7 |
| 20260506004006 | 60 | 11 | 0.0 | 1.7 | 0.01 | 0.06 | 0.06 | 95 | 1005.7 |
| 20260506003542 | 60 | 11 | 0.0 | 1.7 | 0.01 | 0.06 | 0.06 | 95 | 1005.6 |
| 20260506003059 | 60 | 273 | 0.0 | 0.0 | 0.00 | 0.05 | 0.05 | 95 | 1006.1 |
| 20260506002538 | 60 | 273 | 0.0 | 0.0 | 0.00 | 0.05 | 0.05 | 95 | 1006.0 |
| 20260506002055 | 60 | 273 | 0.0 | 0.0 | 0.00 | 0.05 | 0.05 | 94 | 1006.0 |
| 20260506001536 | 60 | 273 | 0.0 | 0.0 | 0.00 | 0.05 | 0.05 | 94 | 1005.8 |
| 20260506001050 | 60 | 273 | 0.0 | 0.0 | 0.00 | 0.05 | 0.05 | 94 | 1005.5 |
| 20260506000532 | 60 | 273 | 0.0 | 0.9 | 0.00 | 0.05 | 0.05 | 93 | 1005.4 |
| 20260506000049 | 60 | 273 | 0.0 | 0.9 | 0.00 | 0.05 | 0.05 | 93 | 1005.4 |
| 20260505235523 | 60 | 273 | 0.0 | 0.9 | 0.00 | 0.05 | 0.05 | 93 | 1005.4 |
| 20260505235044 | 60 | 273 | 0.0 | 0.0 | 0.00 | 0.05 | 0.05 | 92 | 1005.4 |
| 20260505234525 | 61 | 273 | 0.0 | 0.0 | 0.00 | 0.05 | 0.05 | 92 | 1005.3 |
| 20260505234057 | 61 | 273 | 0.0 | 0.0 | 0.00 | 0.05 | 0.05 | 92 | 1005.2 |
| 20260505233535 | 61 | 273 | 0.0 | 0.0 | 0.00 | 0.05 | 0.05 | 93 | 1005.1 |
| 20260505233010 | 61 | 273 | 0.0 | 0.9 | 0.00 | 0.05 | 0.05 | 92 | 1005.1 |
| 20260505232524 | 61 | 273 | 0.0 | 0.0 | 0.00 | 0.05 | 0.05 | 92 | 1004.8 |
| 20260505232059 | 61 | 273 | 0.0 | 0.0 | 0.00 | 0.05 | 0.05 | 92 | 1004.8 |
| 20260505231554 | 61 | 273 | 0.0 | 0.0 | 0.00 | 0.05 | 0.05 | 92 | 1004.7 |
| 20260505231056 | 61 | 273 | 0.0 | 0.9 | 0.00 | 0.05 | 0.05 | 92 | 1004.7 |
| 20260505230538 | 61 | 273 | 0.0 | 0.9 | 0.00 | 0.05 | 0.05 | 92 | 1004.7 |
| 20260505230052 | 61 | 273 | 0.0 | 0.0 | 0.00 | 0.05 | 0.05 | 92 | 1004.5 |
| 20260505225531 | 61 | 273 | 0.0 | 0.0 | 0.01 | 0.05 | 0.05 | 93 | 1004.4 |
| 20260505225014 | 61 | 273 | 0.0 | 0.0 | 0.02 | 0.05 | 0.05 | 93 | 1004.4 |
| 20260505224542 | 61 | 273 | 0.0 | 0.0 | 0.02 | 0.05 | 0.05 | 93 | 1004.5 |
| 20260505224018 | 61 | 273 | 0.0 | 0.9 | 0.05 | 0.05 | 0.05 | 93 | 1004.6 |
| 20260505223538 | 60 | 273 | 0.0 | 0.9 | 0.05 | 0.05 | 0.05 | 93 | 1004.5 |
| 20260505223058 | 60 | 273 | 0.0 | 1.7 | 0.05 | 0.05 | 0.05 | 92 | 1004.5 |
| 20260505222542 | 60 | 273 | 0.0 | 1.7 | 0.05 | 0.05 | 0.05 | 92 | 1004.6 |
| 20260505222056 | 60 | 265 | 0.0 | 0.9 | 0.05 | 0.05 | 0.05 | 92 | 1004.7 |
| 20260505221535 | 60 | 269 | 0.0 | 0.9 | 0.05 | 0.05 | 0.05 | 92 | 1004.8 |
| 20260505221015 | 60 | 269 | 0.0 | 1.7 | 0.05 | 0.05 | 0.05 | 91 | 1004.9 |
| 20260505220534 | 60 | 275 | 0.0 | 2.6 | 0.05 | 0.05 | 0.05 | 91 | 1005.2 |
| 20260505220012 | 60 | 300 | 0.0 | 2.6 | 0.05 | 0.05 | 0.05 | 90 | 1005.4 |
| 20260505215534 | 61 | 331 | 0.0 | 7.8 | 0.04 | 0.04 | 0.04 | 89 | 1005.4 |
| 20260505215008 | 61 | 291 | 0.9 | 11.3 | 0.03 | 0.03 | 0.03 | 88 | 1005.6 |
| 20260505214535 | 62 | 314 | 1.7 | 11.3 | 0.02 | 0.02 | 0.03 | 86 | 1005.7 |
| 20260505214004 | 62 | 355 | 1.7 | 8.7 | 0.00 | 0.00 | 0.00 | 84 | 1006.1 |
| 20260505213541 | 62 | 279 | 2.6 | 10.4 | 0.00 | 0.00 | 0.00 | 82 | 1006.1 |
| 20260505213058 | 63 | 252 | 3.5 | 10.4 | 0.00 | 0.00 | 0.00 | 79 | 1005.8 |
| 20260505213002 | 64 | 272 | 2.6 | 7.8 | 0.00 | 0.00 | 0.00 | 79 | 1005.8 |
| 20260505212540 | 64 | 303 | 1.7 | 8.7 | 0.00 | 0.00 | 0.00 | 76 | 1005.4 |
| 20260505212100 | 64 | 348 | 2.6 | 8.7 | 0.00 | 0.00 | 0.00 | 75 | 1005.1 |
| 20260505212002 | 64 | 340 | 2.6 | 7.8 | 0.00 | 0.00 | 0.00 | 75 | 1005.0 |
| 20260505211522 | 65 | 249 | 0.9 | 7.0 | 0.00 | 0.00 | 0.00 | 74 | 1004.8 |
| 20260505211058 | 65 | 292 | 0.9 | 4.3 | 0.00 | 0.00 | 0.00 | 72 | 1004.3 |
| 20260505210537 | 65 | 293 | 1.7 | 4.3 | 0.00 | 0.00 | 0.00 | 72 | 1004.1 |
| 20260505210052 | 66 | 288 | 1.7 | 8.7 | 0.00 | 0.00 | 0.00 | 71 | 1004.0 |
| 20260505205518 | 67 | 291 | 2.6 | 8.7 | 0.00 | 0.00 | 0.00 | 68 | 1004.1 |
| 20260505205050 | 67 | 5 | 1.7 | 13.9 | 0.00 | 0.00 | 0.00 | 66 | 1004.2 |
| 20260505204534 | 68 | 314 | 3.5 | 13.9 | 0.00 | 0.00 | 0.00 | 64 | 1004.2 |
| 20260505204045 | 69 | 360 | 3.5 | 13.0 | 0.00 | 0.00 | 0.00 | 64 | 1004.4 |
| 20260505203508 | 70 | 309 | 3.5 | 12.2 | 0.00 | 0.00 | 0.00 | 64 | 1004.2 |
| 20260505203101 | 71 | 25 | 3.5 | 13.0 | 0.00 | 0.00 | 0.00 | 63 | 1003.8 |
| 20260505202518 | 71 | 13 | 2.6 | 13.0 | 0.00 | 0.00 | 0.00 | 62 | 1003.4 |
| 20260505202038 | 72 | 323 | 1.7 | 9.6 | 0.00 | 0.00 | 0.00 | 61 | 1002.6 |
| 20260505201528 | 72 | 9 | 1.7 | 3.5 | 0.00 | 0.00 | 0.00 | 61 | 1002.4 |
| 20260505201036 | 72 | 284 | 0.9 | 4.3 | 0.00 | 0.00 | 0.00 | 64 | 1002.3 |
| 20260505200510 | 71 | 344 | 0.9 | 4.3 | 0.00 | 0.00 | 0.00 | 63 | 1002.5 |
| 20260505200029 | 71 | 304 | 1.7 | 3.5 | 0.00 | 0.00 | 0.00 | 64 | 1002.4 |
| 20260505195505 | 70 | 327 | 0.0 | 7.0 | 0.00 | 0.00 | 0.00 | 64 | 1002.5 |
| 20260505195027 | 70 | 273 | 2.6 | 7.0 | 0.00 | 0.00 | 0.00 | 65 | 1002.5 |
| 20260505194504 | 70 | 301 | 1.7 | 5.2 | 0.00 | 0.00 | 0.00 | 69 | 1002.7 |
| 20260505194043 | 69 | 308 | 0.9 | 5.2 | 0.00 | 0.00 | 0.00 | 66 | 1002.8 |
| 20260505193558 | 69 | 315 | 0.9 | 8.7 | 0.00 | 0.00 | 0.00 | 68 | 1002.6 |
| 20260505193029 | 70 | 290 | 2.6 | 8.7 | 0.00 | 0.00 | 0.00 | 65 | 1002.3 |
| 20260505192554 | 71 | 351 | 1.7 | 16.5 | 0.00 | 0.00 | 0.00 | 63 | 1002.7 |
| 20260505192016 | 73 | 350 | 3.5 | 16.5 | 0.00 | 0.00 | 0.00 | 58 | 1003.3 |
| 20260505191602 | 74 | 335 | 5.2 | 16.5 | 0.00 | 0.00 | 0.00 | 53 | 1003.5 |
| 20260505191011 | 75 | 316 | 1.7 | 9.6 | 0.00 | 0.00 | 0.00 | 48 | 1003.0 |
| 20260505190546 | 76 | 355 | 1.7 | 14.8 | 0.00 | 0.00 | 0.00 | 46 | 1002.4 |
| 20260505190059 | 76 | 334 | 6.1 | 14.8 | 0.00 | 0.00 | 0.00 | 44 | 1002.3 |
| 20260505190012 | 76 | 292 | 6.1 | 14.8 | 0.00 | 0.00 | 0.00 | 45 | 1002.2 |
| 20260505185542 | 77 | 261 | 2.6 | 13.0 | 0.00 | 0.00 | 0.00 | 45 | 1002.5 |
| 20260505185018 | 78 | 5 | 6.1 | 12.2 | 0.00 | 0.00 | 0.00 | 40 | 1002.4 |
| 20260505184537 | 78 | 302 | 1.7 | 10.4 | 0.00 | 0.00 | 0.00 | 39 | 1002.2 |
| 20260505184015 | 78 | 290 | 3.5 | 11.3 | 0.00 | 0.00 | 0.00 | 40 | 1002.2 |
| 20260505183537 | 79 | 267 | 6.1 | 10.4 | 0.00 | 0.00 | 0.00 | 39 | 1002.1 |
| 20260505183018 | 79 | 266 | 4.3 | 13.9 | 0.00 | 0.00 | 0.00 | 39 | 1002.0 |
| 20260505182533 | 79 | 251 | 6.1 | 13.0 | 0.00 | 0.00 | 0.00 | 38 | 1002.0 |
| 20260505182012 | 80 | 286 | 3.5 | 10.4 | 0.00 | 0.00 | 0.00 | 38 | 1001.9 |
| 20260505181547 | 80 | 279 | 4.3 | 11.3 | 0.00 | 0.00 | 0.00 | 39 | 1002.0 |
| 20260505181004 | 80 | 321 | 4.3 | 13.0 | 0.00 | 0.00 | 0.00 | 39 | 1002.2 |
| 20260505180525 | 80 | 266 | 6.1 | 17.4 | 0.00 | 0.00 | 0.00 | 37 | 1002.2 |
| 20260505180002 | 80 | 280 | 7.8 | 20.0 | 0.00 | 0.00 | 0.00 | 35 | 1002.2 |
| 20260505175537 | 80 | 282 | 7.8 | 20.0 | 0.00 | 0.00 | 0.00 | 35 | 1002.2 |
| 20260505175054 | 80 | 242 | 8.7 | 17.4 | 0.00 | 0.00 | 0.00 | 36 | 1002.2 |
| 20260505174540 | 80 | 302 | 7.8 | 16.5 | 0.00 | 0.00 | 0.00 | 37 | 1002.2 |
| 20260505174052 | 81 | 344 | 6.1 | 14.8 | 0.00 | 0.00 | 0.00 | 40 | 1002.1 |
| 20260505173532 | 81 | 269 | 4.3 | 14.8 | 0.00 | 0.00 | 0.00 | 38 | 1002.4 |
| 20260505173054 | 81 | 263 | 4.3 | 14.8 | 0.00 | 0.00 | 0.00 | 37 | 1002.4 |
| 20260505172531 | 81 | 262 | 4.3 | 14.8 | 0.00 | 0.00 | 0.00 | 37 | 1002.5 |
| 20260505172043 | 81 | 306 | 4.3 | 15.6 | 0.00 | 0.00 | 0.00 | 38 | 1002.7 |
| 20260505171519 | 81 | 269 | 6.1 | 14.8 | 0.00 | 0.00 | 0.00 | 37 | 1002.7 |
| 20260505171038 | 81 | 236 | 7.8 | 14.8 | 0.00 | 0.00 | 0.00 | 37 | 1002.6 |
| 20260505170518 | 81 | 250 | 6.1 | 15.6 | 0.00 | 0.00 | 0.00 | 37 | 1002.9 |
| 20260505170107 | 80 | 295 | 7.0 | 15.6 | 0.00 | 0.00 | 0.00 | 39 | 1002.9 |
| 20260505165532 | 81 | 281 | 3.5 | 15.6 | 0.00 | 0.00 | 0.00 | 40 | 1003.0 |
| 20260505165047 | 80 | 221 | 6.1 | 15.6 | 0.00 | 0.00 | 0.00 | 38 | 1003.1 |
| 20260505164526 | 80 | 187 | 2.6 | 13.0 | 0.00 | 0.00 | 0.00 | 39 | 1003.0 |
| 20260505164005 | 80 | 258 | 3.5 | 11.3 | 0.00 | 0.00 | 0.00 | 40 | 1003.2 |
| 20260505163535 | 80 | 261 | 2.6 | 13.0 | 0.00 | 0.00 | 0.00 | 43 | 1003.3 |
| 20260505163016 | 80 | 279 | 7.8 | 14.8 | 0.00 | 0.00 | 0.00 | 40 | 1003.6 |